This is the latest recevied weather packets stored in our database for station/object VE3MNX. If no packets are shown the sender has not sent any weather packets the latest 1 day(s).
| Time | Temp. | Humidity | Pressure | Rain* | Wind** | Luminosity | Snow |
|---|---|---|---|---|---|---|---|
| 1778036897 | 8.89° C | 99% | 1007.8 hPa | 1.02 mm | 2.24 m/s, 255° | - | - |
| 1778035998 | 8.89° C | 99% | 1007.8 hPa | 0.51 mm | 2.68 m/s, 253° | - | - |
| 1778035097 | 8.89° C | 99% | 1007.8 hPa | 0.25 mm | 2.68 m/s, 256° | - | - |
| 1778034198 | 8.89° C | 99% | 1007.5 hPa | 0.25 mm | 1.34 m/s, 263° | - | - |
| 1778033298 | 8.89° C | 99% | 1007.1 hPa | 0 mm | 1.34 m/s, 238° | - | - |
| 1778032399 | 8.89° C | 99% | 1007.1 hPa | 0.25 mm | 2.24 m/s, 263° | - | - |
| 1778031497 | 8.89° C | 99% | 1006.8 hPa | 0.51 mm | 1.34 m/s, 258° | - | - |
| 1778030598 | 8.89° C | 99% | 1006.8 hPa | 0.51 mm | 1.34 m/s, 265° | - | - |
| 1778029697 | 8.89° C | 99% | 1007.1 hPa | 0.51 mm | 2.24 m/s, 250° | - | - |
| 1778028799 | 8.89° C | 99% | 1007.1 hPa | 0.25 mm | 2.24 m/s, 247° | - | - |
| 1778027897 | 8.89° C | 99% | 1006.8 hPa | 0.51 mm | 2.68 m/s, 233° | - | - |
| 1778027077 | 8.89° C | 99% | 1006.8 hPa | 0.76 mm | 1.34 m/s, 242° | - | - |
| 1778026181 | 8.89° C | 99% | 1006.4 hPa | 1.02 mm | 1.34 m/s, 244° | - | - |
| 1778025198 | 8.89° C | 99% | 1006.4 hPa | 1.52 mm | 2.68 m/s, 242° | - | - |
| 1778024297 | 9.44° C | 99% | 1006.8 hPa | 2.03 mm | 1.34 m/s, 249° | - | - |
| 1778023400 | 9.44° C | 99% | 1006.8 hPa | 2.29 mm | 2.24 m/s, 229° | - | - |
| 1778022496 | 9.44° C | 99% | 1006.4 hPa | 2.29 mm | 1.34 m/s, 278° | - | - |
| 1778021599 | 9.44° C | 99% | 1006.4 hPa | 2.29 mm | 0.89 m/s, 279° | - | - |
| 1778020697 | 9.44° C | 98% | 1006.1 hPa | 1.52 mm | 0.45 m/s, 283° | - | - |
| 1778019797 | 9.44° C | 98% | 1006.8 hPa | 1.27 mm | 0.45 m/s, 283° | - | - |
| 1778018897 | 10° C | 98% | 1006.8 hPa | 1.02 mm | 0.89 m/s, 296° | - | - |
| 1778017997 | 10° C | 96% | 1006.1 hPa | 1.02 mm | 0.89 m/s, 296° | - | - |
| 1778017099 | 10.56° C | 95% | 1006.4 hPa | 0.76 mm | 0.45 m/s, 296° | - | - |
| 1778016197 | 10.56° C | 95% | 1006.4 hPa | 0.76 mm | 0 m/s | - | - |
| 1778015297 | 10° C | 95% | 1006.8 hPa | 1.52 mm | 0.45 m/s, 326° | - | - |
* Rain latest hour (hover to see other rain measurements)
** Current wind speed in m/s (hover to see current wind gust speed)